Location: Okie-Tex Star Party
(36.8978°N, 102.9520°W)
Time: 00:28:18
(UTC-05:00)

Daily predictions for brighter satellites

Satellite Brightness Start Highest point End
(mag) Time Altitude Azimuth Time Altitude Azimuth Time Altitude Azimuth
COSMOS 2406 4.1 00:03:21 18° SW 00:07:19 45° WNW 00:12:50 10° N
Cosmos 1842 Rocket 3.9 00:06:24 10° NNW 00:10:19 61° NW 00:10:19 61° NW
Cosmos 1943 Rocket 3.0 00:07:34 10° NW 00:12:41 38° WSW 00:13:25 37° WSW
SeaSat 1 4.1 00:12:25 21° WSW 00:13:00 22° WSW 00:16:45 10° WNW
Cosmos 2082 Rocket 4.0 00:16:38 17° ENE 00:16:38 17° ENE 00:18:43 10° NE
Cosmos 1656 Rocket 3.6 00:13:47 10° NNW 00:19:28 76° WSW 00:19:38 75° SW
Cosmos 1707 4.2 00:25:34 35° N 00:25:34 35° N 00:27:55 10° N
Atlas Centaur 2 3.8 00:19:56 10° W 00:25:27 34° SW 00:25:27 34° SW
Cosmos 1953 4.4 00:26:02 10° NW 00:28:40 20° W 00:28:40 20° W
NOSS 3-2 (C) 3.3 00:30:29 73° SW 00:31:11 89° NW 00:37:46 10° NNE
Terra 3.0 00:36:49 34° W 00:36:49 34° W 00:40:49 10° NNW
Cosmos 2221 3.6 00:34:54 10° N 00:37:48 41° N 00:37:48 41° N
Cosmos 1867 3.9 00:49:21 59° NE 00:49:21 59° NE 00:53:46 10° NNE
Meteor 1-24 Rocket 3.8 00:52:40 84° NW 00:52:40 84° NW 00:58:28 10° N
H-2A R/B 3.7 00:54:58 22° W 00:54:58 22° W 00:58:46 10° NW
Lacrosse 5 3.7 00:57:21 10° NNW 01:01:25 24° NE 01:02:51 21° ENE
S3M 3.9 00:55:31 10° N 01:01:32 75° ENE 01:01:32 75° ENE
Cosmos 1428 Rocket 4.4 01:02:06 81° NE 01:02:06 81° NE 01:08:07 10° N
Cosmos 468 Rocket 4.4 00:57:11 10° NNW 01:01:29 60° NNW 01:01:29 60° NNW
USA 234 4.1 01:11:49 36° WSW 01:11:49 36° WSW 01:16:56 10° WNW
Timation 2 Rocket 4.5 01:22:07 53° WSW 01:23:15 60° WNW 01:30:00 10° NNE
Cosmos 2369 4.0 01:17:50 10° NNW 01:22:37 64° NNW 01:22:37 64° NNW
CZ-4C R/B 4.1 01:33:48 17° W 01:36:36 25° NW 01:41:30 10° NNE
Cosmos 1980 Rocket 3.6 01:31:43 10° N 01:36:36 29° ENE 01:37:17 28° ENE
Cosmos 1763 Rocket 4.1 01:31:29 10° NNW 01:35:34 54° NNW 01:35:34 54° NNW
Meteor 1-21 Rocket 4.5 01:42:25 67° N 01:42:25 67° N 01:47:19 10° N
CZ-4B R/B 4.2 01:45:06 19° NNW 01:45:06 19° NNW 01:46:15 10° NNW
ALOS 2 4.3 01:46:57 30° NW 01:46:57 30° NW 01:49:20 10° NNW
Cosmos 2344 3.7 01:45:49 54° WSW 01:47:42 72° NW 01:56:19 10° NNE
Aureole 1 Rocket 4.3 01:46:48 10° N 01:51:38 51° ENE 01:51:38 51° ENE
Meteor 2-20 Rocket 4.5 01:54:37 75° NW 01:54:37 75° NW 02:00:25 10° N
Cosmos 1697 Rocket 3.0 01:49:46 10° NNW 01:54:45 63° NNE 01:54:45 63° NNE
Cosmos 2082 Rocket 2.9 01:58:27 47° WNW 01:58:27 47° WNW 02:03:44 10° N
Cosmos 1833 Rocket 3.1 01:59:06 58° NW 01:59:06 58° NW 02:04:07 10° NNE
CENTAUR R/B 2.5 02:03:52 80° NNW 02:03:52 80° NNW 02:10:25 10° NNE
Cosmos 1656 4.2 02:04:10 10° NNW 02:08:33 51° NW 02:08:33 51° NW
Lacrosse 5 rocket 3.4 02:09:43 10° NNW 02:13:21 26° NE 02:13:41 25° NE
ASTEX 1 4.4 02:12:30 10° NNE 02:16:09 40° NE 02:16:09 40° NE
CZ-2C R/B 3.0 02:19:47 10° N 02:24:34 62° NNW 02:24:34 62° NNW
Cosmos 371 Rocket 4.3 02:28:49 10° N 02:32:53 42° NE 02:32:53 42° NE
Cosmos 2360 4.4 02:29:48 10° NNW 02:35:28 63° ENE 02:35:28 63° ENE
SL-16 R/B 3.3 02:38:52 10° N 02:44:10 39° ENE 02:45:43 32° E
Lacrosse 5 3.4 02:39:43 10° NW 02:41:59 26° NW 02:41:59 26° NW
Cosmos 1745 Rocket 3.9 02:45:30 79° ESE 02:45:41 80° E 02:52:03 10° N
Meteor 2-11 Rocket 4.5 02:43:04 10° NNW 02:48:53 67° WNW 02:48:53 67° WNW
Nadezhda 1 Rocket 4.0 02:46:47 10° N 02:52:54 68° E 02:53:22 65° ESE
Cosmos 2322 Rocket 2.8 02:48:06 10° N 02:53:33 50° ENE 02:54:31 45° E
Cosmos 1538 Rocket 4.1 02:56:35 10° NNW 03:01:14 70° N 03:01:14 70° N
Meteor 1-27 4.4 02:58:12 10° NNW 03:03:37 65° WNW 03:03:37 65° WNW
Cosmos 1777 Rocket 4.0 03:09:06 78° NE 03:09:06 78° NE 03:14:03 10° NNE
Cosmos 773 Rocket 4.4 03:04:13 10° N 03:09:16 56° ENE 03:09:40 54° E
Cosmos 1271 Rocket 4.4 03:07:00 10° N 03:09:21 32° NNE 03:09:21 32° NNE
ERS-2 4.0 03:07:20 10° NNE 03:09:29 28° NE 03:09:29 28° NE
CZ-2C R/B 3.9 03:12:05 43° WNW 03:12:05 43° WNW 03:16:44 10° NNW
NPP 4.1 03:10:56 10° NNE 03:16:09 49° E 03:16:33 48° ESE
Cosmos 1633 Rocket 4.3 03:18:38 34° NW 03:18:38 34° NW 03:21:40 10° N
Cosmos 1980 Rocket 3.3 03:15:30 10° NW 03:19:01 30° WNW 03:19:01 30° WNW
Cosmos 2360 Rocket 3.8 03:16:27 10° N 03:21:23 30° ENE 03:26:18 10° ESE
PSLV R/B 4.1 03:21:00 10° N 03:24:45 55° NNW 03:24:45 55° NNW
CBERS-1 4.5 03:22:44 10° NNE 03:27:43 50° E 03:28:11 49° ESE
USA 215 3.3 03:22:03 10° NE 03:28:29 59° SE 03:29:34 52° SSE
ARIANE 5 R/B 4.3 03:29:50 10° NE 03:33:40 21° E 03:35:29 18° ESE
Resurs 1-4 Rocket 4.3 03:34:25 10° NE 03:37:56 18° E 03:40:52 12° SE
Cosmos 1470 Rocket 4.3 03:41:36 43° NW 03:41:36 43° NW 03:45:10 10° N
ATLAS 5 CENTAUR R/B 1.9 03:42:01 67° WNW 03:42:11 67° NW 03:47:22 10° NNE
Cosmos 2219 4.1 03:41:17 34° SE 03:42:43 40° ESE 03:48:02 10° NE
IRAS Rocket 4.2 03:39:35 10° N 03:45:00 64° WNW 03:45:40 59° WSW
Cosmos 1933 Rocket 4.4 03:45:44 41° NW 03:45:44 41° NW 03:49:16 10° N
H-2A ROCKET BODY 4.1 03:32:10 10° WSW 03:50:06 - ESE 03:39:05 21° WSW
SL-08 R/B 3.3 03:48:00 67° SSE 03:48:40 83° ENE 03:53:36 10° N
IRS-P3 4.1 03:44:01 10° N 03:49:19 68° WNW 03:49:57 61° WSW
Cosmos 1455 3.2 03:47:31 10° NNW 03:50:02 38° NNW 03:50:02 38° NNW
Cosmos 1626 3.2 03:53:04 38° NNW 03:53:04 38° NNW 03:55:43 10° N
Lacrosse 5 rocket 3.7 03:48:35 10° NW 03:49:21 15° WNW 03:49:21 15° WNW
Cosmos 1933 3.6 03:56:56 10° N 04:00:56 62° E 04:01:18 58° ESE
OAO 3 Rocket 3.9 04:03:58 38° SE 04:03:58 38° SE 04:07:04 10° ESE
Cosmos 2181 Rocket 3.9 03:57:44 10° N 04:03:54 73° W 04:05:58 44° SSW
ADEOS 3.5 03:58:48 10° NNE 04:04:03 81° ESE 04:05:24 51° S
Cosmos 2150 Rocket 4.3 04:04:11 42° SSE 04:05:45 61° ESE 04:11:04 10° NNE
Cosmos 2112 Rocket 3.8 04:03:49 10° NNW 04:09:01 78° WSW 04:10:28 48° S
USA 161 3.7 04:14:36 20° N 04:14:36 20° N 04:15:31 10° N
GENESIS II 4.1 04:10:17 10° NNW 04:14:15 75° W 04:14:15 75° W
Cosmos 304 Rocket 3.8 04:13:28 10° NNW 04:18:13 58° WSW 04:18:48 53° SW
ATLAS CENTAUR R/B 2.6 04:14:17 10° NNW 04:18:45 45° NE 04:22:50 10° SE
COSMOS 2428 3.7 04:15:43 10° N 04:21:10 46° ENE 04:26:35 10° SE
GPS 2-05 Rocket1 4.0 04:23:51 31° ESE 04:23:51 31° ESE 04:25:46 10° ESE
Cosmos 2074 Rocket 3.9 04:21:44 34° S 04:24:42 86° W 04:30:59 10° N
SL-16 R/B 3.3 04:23:24 10° NW 04:27:32 26° W 04:27:32 26° W
USA 229 DEB 3.7 04:28:22 34° SW 04:31:42 75° WNW 04:38:43 10° NNE
USA 229 3.7 04:28:28 34° SW 04:31:48 76° WNW 04:38:49 10° NNE
OAO 1 4.4 04:31:02 31° W 04:33:42 75° S 04:39:12 10° E
Cosmos 2184 Rocket 4.0 04:31:03 31° SSW 04:34:18 76° W 04:40:39 10° N
UNK 4.3 04:30:12 11° SSE 04:34:26 55° ENE 04:38:55 10° N
Cosmos 2322 Rocket 3.7 04:33:14 10° NW 04:36:17 19° W 04:36:17 19° W
Cosmos 2327 Rocket 4.5 04:34:30 32° SSW 04:37:29 68° W 04:43:41 10° N
Cosmos 990 Rocket 4.4 04:35:14 24° S 04:38:09 56° ESE 04:43:12 10° NNE
Okean O Rocket 3.4 04:35:21 10° NE 04:39:05 26° E 04:42:47 10° SSE
CZ-2D R/B 2.3 04:34:01 10° NNE 04:39:17 68° ESE 04:42:43 22° S
Cosmos 2219 Rocket 4.0 04:36:15 10° N 04:41:15 32° ENE 04:46:13 10° ESE
CRYOSAT 2 4.3 04:37:08 10° N 04:42:00 82° W 04:44:30 29° SSW
BREEZE-M DEB (TANK) 4.5 04:39:40 13° WNW 04:42:26 31° N 04:50:40 10° NE
Cosmos 2237 4.4 04:37:49 10° NNW 04:43:35 74° ENE 04:49:17 10° SSE
MOS 1-B 4.5 04:38:14 10° NNE 04:44:01 72° ESE 04:48:10 20° S
ERS-2 4.5 04:42:42 10° NW 04:44:15 12° WNW 04:44:20 12° WNW
UNKNOWN OBJECT B 3.4 04:41:42 10° NNE 04:45:28 51° E 04:47:46 22° SSE
Cosmos 1869 Rocket 4.2 04:45:44 33° WSW 04:46:43 38° W 04:50:52 10° N
SL-16 R/B 2.5 04:43:27 10° SSE 04:49:43 88° WSW 04:56:02 10° NNW
NOSS 3-1 (A) 4.4 04:47:55 15° S 04:52:18 38° ESE 04:58:02 10° NE
GOES 2 Rocket 4.2 04:57:07 26° SSW 04:58:20 29° S 05:02:13 10° ESE
BREEZE-M DEB (TANK) 3.9 04:56:11 10° NW 04:58:38 24° NNE 05:00:35 10° E
Cosmos 220 Rocket 3.9 04:56:47 27° SSW 04:59:02 88° ESE 05:03:21 10° NNE
Meteor 2-3 Rocket 3.8 04:57:07 22° SSW 05:00:55 69° W 05:06:44 10° N
Cosmos 2360 Rocket 2.8 05:00:19 10° NW 05:05:20 34° WSW 05:08:30 19° SSW
EO 1 Del DPAF 3.7 05:05:28 27° SSW 05:07:06 41° W 05:10:49 10° NNW
DELTA 2 R/B (1) 3.8 05:04:37 24° SW 05:07:56 58° SSE 05:13:26 10° ENE
In-Cosmos 22 Rocket 4.3 05:05:24 22° SW 05:08:37 52° WNW 05:13:55 10° N
Cosmos 2227 Rocket 2.8 05:03:42 12° S 05:08:44 54° ESE 05:14:15 10° NNE
USA 215 4.1 05:05:17 10° NNE 05:11:16 40° NW 05:16:54 12° W
ARIANE 5 R/B 3.2 05:08:14 10° N 05:12:52 38° WNW 05:15:49 20° SW
Cosmos 1733 Rocket 3.0 05:12:28 18° SSW 05:15:40 72° W 05:20:03 10° N
H-2A R/B 4.1 05:11:00 13° W 05:16:40 61° S 06:01:43 10° ESE
Resurs 1-4 Rocket 2.4 05:12:52 10° N 05:18:01 51° WNW 05:21:57 17° SW
Centaur D-1AR AC-48 4.3 05:04:08 10° WSW 05:21:11 29° SSW 05:26:11 10° SE
CZ-4B R/B 3.6 05:16:06 10° NNE 05:21:35 65° ESE 05:27:08 10° S
Cosmos 1937 Rocket 4.3 05:19:12 18° SW 05:22:33 38° WNW 05:27:29 10° N
IRS-1D 4.4 05:18:29 10° N 05:23:17 36° WNW 05:26:52 16° SW
Coronas F rocket 1.6 05:21:21 14° S 05:23:32 67° E 05:26:15 10° NNE
Cosmos 1606 4.4 05:21:54 10° NNE 05:25:23 34° E 05:28:50 10° SE
Thor Agena Rocket 3.9 05:20:54 10° SSE 05:26:10 71° ENE 05:31:26 10° N
Cosmos 1125 Rocket 3.8 05:21:07 10° S 05:26:19 67° ESE 05:31:36 10° NNE
PSLV R/B 3.8 05:22:44 10° NNE 05:26:45 88° W 05:30:49 10° SSW
Cosmos 2219 4.5 05:23:13 14° WSW 05:26:57 27° WNW 05:31:47 10° N
Cosmos 2333 4.2 05:21:56 10° NNW 05:27:32 63° WSW 05:33:09 10° S
Abrixas 4.5 05:24:50 10° NW 05:27:40 32° NNE 05:30:29 10° E
ATLAS 5 CENTAUR R/B 4.3 05:26:21 10° NW 05:27:59 11° NW 05:29:40 10° NNW
NOSS 0 Rocket 4.0 05:30:16 10° NNW 05:36:26 84° ENE 05:42:35 10° SSE
Meteor 1-10 Rocket 4.3 05:30:48 10° NNW 05:36:33 76° W 05:42:23 10° S
Cosmos 389 Rocket 3.4 05:33:40 10° NNW 05:36:58 31° W 05:40:05 11° SSW
Cosmos 1782 2.7 05:37:01 10° N 05:41:00 73° W 05:44:58 10° S
Cosmos 2297 Rocket 2.5 05:35:33 10° SSW 05:41:10 71° ESE 05:46:49 10° NNE
Cosmos 192 4.3 05:38:07 10° NNW 05:43:02 85° WSW 05:47:55 10° SSE
Cosmos 1378 Rocket 4.1 05:38:36 10° N 05:43:02 64° E 05:47:26 10° SSE
OAO 3 Rocket 4.3 05:41:55 10° WSW 05:45:34 23° SSW 05:49:15 10° SSE
Cosmos 1825 3.0 05:42:11 10° S 05:45:52 52° E 05:49:35 10° NNE
Cosmos 1238 Rocket 3.9 05:42:40 10° N 05:49:12 74° W 05:54:48 10° S
Cosmos 1892 4.0 05:46:36 12° SW 05:49:30 25° WNW 05:52:43 10° NNW
Cosmos 1269 Rocket 4.2 05:44:35 10° NNW 05:49:55 80° ENE 05:55:14 10° SSE
Sich 1 Rocket 3.9 05:46:03 10° SSW 05:50:17 48° W 05:54:32 10° N
CZ-4B DEB 4.2 05:46:51 10° N 05:52:21 75° WNW 05:57:51 10° SSW
Cosmos 2341 Rocket 4.5 05:46:26 10° SSW 05:52:25 45° WNW 05:58:29 10° N
CZ-3 Stage 3 3.0 05:48:27 10° W 05:52:27 23° SSW 05:54:46 10° SSE
Cosmos 1975 Rocket 4.0 05:48:31 10° N 05:52:55 54° E 05:57:16 10° SSE
Cosmos 1980 3.7 05:48:16 10° NNW 05:53:56 85° WSW 05:59:34 10° SSE
Cosmos 1908 Rocket 3.7 05:49:54 10° SSW 05:54:15 60° W 05:58:36 10° N
NOSS 3-1 (C) 3.7 05:48:58 10° SW 05:54:40 55° NW 06:01:00 10° NNE
Cosmos 2333 Rocket 2.2 05:49:08 10° NNW 05:54:51 80° WSW 06:00:35 10° SSE
Cosmos 2082 3.9 05:49:39 10° SSW 05:55:18 62° WNW 06:01:00 10° NNE
SL-23 DEB 3.9 05:53:07 10° NW 05:56:34 67° SW 06:01:55 10° SE
Cosmos 1862 3.3 05:52:50 10° S 05:56:50 81° W 06:00:49 10° N
ATLAS CENTAUR R/B 3.1 05:54:43 10° WNW 05:57:21 16° WSW 05:59:51 10° SW
CZ-4B R/B 3.1 05:53:46 10° N 05:57:53 63° WNW 06:02:11 10° SSW
Cosmos 1340 Rocket 3.7 05:54:32 10° SW 05:58:11 33° WNW 06:01:50 10° NNW
MOZ.5/SAFIR/RUBIN 5/SL-8 3.8 05:53:53 10° S 05:58:32 67° W 06:03:15 10° NNW
GPS 2-05 Rocket1 3.9 05:57:44 10° WSW 06:00:30 25° SSW 06:03:21 10° SE
Cosmos 1674 Rocket 4.3 05:57:21 10° NNW 06:01:15 33° W 06:05:09 10° SSW
SL-8 Rocket 4.1 05:55:19 10° SSW 06:01:28 66° W 06:07:43 10° N
CZ-2C R/B 4.4 06:00:08 10° SSW 06:04:11 33° W 06:08:19 10° NNW
COSMOS 2428 3.9 06:00:48 10° NW 06:05:01 22° W 06:09:15 10° SSW
